Location: Central Springs Elementary School at Manly
(43.2859°N, 93.1959°W)
Time: 19:26:05
(UTC+00:00)

UNISAT 6 - Visible Passes

Search period start: 05 December 2024 00:00
Search period end: 15 December 2024 00:00
Orbit: 585 x 656 km, 97.7° (Epoch: 05 December)

Date Brightness Start Highest point End Pass type
(mag) Time Alt. Az. Time Alt. Az. Time Alt. Az.
05 Dec ? 22:59:54 10° N 23:04:00 60° WNW 23:08:07 10° SSW visible
06 Dec ? 23:17:27 10° N 23:21:20 39° WNW 23:25:13 10° SW visible
07 Dec ? 23:35:08 10° NNW 23:38:36 26° WNW 23:42:05 10° SW visible
08 Dec ? 23:53:01 10° NNW 23:55:49 18° WNW 23:58:37 10° WSW visible
10 Dec ? 00:11:22 10° NW 00:12:58 12° WNW 00:14:35 10° W visible
11 Dec ? 23:07:56 10° N 23:11:58 49° WNW 23:16:03 10° SSW visible
12 Dec ? 23:25:27 10° N 23:29:11 32° WNW 23:32:57 10° SW visible
13 Dec ? 23:43:07 10° NNW 23:46:21 22° WNW 23:49:36 10° WSW visible
